Location: Star Dogged Moon Observatory
(29.7756°N, 82.0783°W)
Time: 14:56:46
(UTC-04:00)

Amateur Radio Satellites - All Passes

Search period start: 27 August 2014 14:26
Search period end: 28 August 2014 14:26
Location: Star Dogged Moon Observatory, 29.7756°N, 82.0783°W

Satellite Date Start Highest point End Downlink Frequencies (MHz)
Time Altitude Azimuth
AO-27 27 Aug 14:35:36 14:40:33 47° 73° (ENE) 14:45:31 436.795 MHz FM
AO-Echo 27 Aug 14:40:26 14:45:29 59° 75° (ENE) 14:50:24 ?
MaSat-1 27 Aug 14:41:41 14:46:17 70° 292° (WNW) 14:51:22 437.345 MHz
Gurwin Techsat 1B 27 Aug 14:43:40 14:47:46 23° 69° (ENE) 14:51:52 435.225 FM
AO-7 27 Aug 15:03:52 15:05:51 11° 54° (NE) 15:07:50 29.400 - 29.500 MHz
Oscar 19 27 Aug 15:24:07 15:28:00 22° 264° (W) 15:31:55 437.125 CW, 437.150 USB
TMSAT-1 27 Aug 15:36:23 15:41:33 58° 75° (ENE) 15:46:44 436.925 FM
PANSAT 27 Aug 15:38:35 15:42:26 72° 177° (S) 15:46:16 not established
RS-15 27 Aug 15:44:21 15:46:59 11° 29° (NNE) 15:49:39 29.354 - 29.394 USB, Beacon 29.352 USB
ITAMSAT 1 27 Aug 15:47:27 15:51:57 30° 262° (W) 15:56:28 435.822 SSB
JAS-1B 27 Aug 15:55:39 16:05:08 51° 260° (W) 16:14:14 435.800 - 435.900 CW/SSB
Uribyol 2 27 Aug 15:59:06 16:02:58 21° 264° (W) 16:06:52 436.500 FM
SO-50 27 Aug 15:59:29 16:02:44 18° 251° (WSW) 16:05:59 436.795 FM
AO-27 27 Aug 16:17:23 16:20:13 15° 265° (W) 16:23:03 436.795 MHz FM
Gurwin Techsat 1B 27 Aug 16:22:46 16:27:29 33° 262° (W) 16:32:14 435.225 FM
AO-Echo 27 Aug 16:22:52 16:24:26 11° 266° (W) 16:26:00 ?
UOSAT-12 27 Aug 16:37:59 16:42:42 80° 63° (ENE) 16:47:19 437.025 FM, 437.400 FM
OPAL 27 Aug 16:44:47 16:47:21 14° 96° (E) 16:49:53 ?
AO-7 27 Aug 16:48:53 16:57:09 70° 71° (ENE) 17:05:25 29.400 - 29.500 MHz
PCSat 27 Aug 16:54:03 16:57:07 15° 104° (ESE) 17:00:11 145.825 MHz
Uosat F 27 Aug 17:06:09 17:11:10 86° 76° (ENE) 17:16:11 435.120 FM
PANSAT 27 Aug 17:18:44 17:22:32 57° 190° (S) 17:26:18 not established
TMSAT-1 27 Aug 17:19:37 17:21:43 12° 267° (W) 17:23:49 436.925 FM
AO-40 27 Aug 17:34:02 17:37:31 12° 161° (SSE) 17:42:48 Beacon 2401.320
RS-15 27 Aug 17:52:19 18:02:58 48° 56° (ENE) 18:14:00 29.354 - 29.394 USB, Beacon 29.352 USB
Sapphire 27 Aug 18:04:45 18:10:07 77° 112° (ESE) 18:15:32 437.095 MHz 1200 baud AX-25 AFSK
Oscar 10/S400 27 Aug 18:14:06 18:33:15 54° 152° (SSE) 19:01:31 145.825 - 145.975 CW/USB, Beacon 145.810 USB
OPAL 27 Aug 18:21:20 18:26:25 53° 288° (WNW) 18:31:27 ?
PCSat 27 Aug 18:34:48 18:40:01 50° 297° (WNW) 18:45:17 145.825 MHz
JAS-2 27 Aug 18:36:23 18:42:58 65° 75° (ENE) 18:48:47 435.800 - 435.900 CW/SSB, 435.910 FM
AO-7 27 Aug 18:44:49 18:50:20 19° 264° (W) 18:55:54 29.400 - 29.500 MHz
Hamsat 27 Aug 18:57:05 19:01:19 68° 259° (W) 19:05:38 145.90 MHz
PANSAT 27 Aug 18:59:20 19:02:25 23° 201° (SSW) 19:05:29 not established
SO-67 27 Aug 19:07:29 19:09:15 14° 71° (ENE) 19:11:01 435.3500 MHz FM
ISS 27 Aug 19:32:41 19:35:44 32° 42° (NE) 19:38:46 145.800 FM
Sapphire 27 Aug 19:52:05 19:54:05 12° 308° (NW) 19:56:05 437.095 MHz 1200 baud AX-25 AFSK
STRAND 1 27 Aug 19:59:20 20:04:21 58° 101° (E) 20:09:22 ?
RS-15 27 Aug 20:04:55 20:15:02 41° 253° (WSW) 20:25:36 29.354 - 29.394 USB, Beacon 29.352 USB
HO-68 27 Aug 20:24:14 20:28:46 18° 62° (ENE) 20:33:18 435.675 MHz FM
JAS-2 27 Aug 20:24:47 20:28:06 14° 264° (W) 20:31:15 435.800 - 435.900 CW/SSB, 435.910 FM
SO-67 27 Aug 20:39:19 20:42:03 22° 263° (W) 20:44:47 435.3500 MHz FM
ISS 27 Aug 21:10:16 21:12:14 15° 234° (SW) 21:14:11 145.800 FM
STRAND 1 27 Aug 21:40:53 21:43:00 13° 294° (WNW) 21:45:06 ?
UKube-1 27 Aug 22:04:04 22:08:21 63° 76° (ENE) 22:12:39 145.840 MHz, 145.915 MHz
HO-68 27 Aug 22:08:40 22:15:45 68° 257° (WSW) 22:22:52 435.675 MHz FM
Oscar 11 27 Aug 22:13:53 22:18:01 46° 75° (ENE) 22:22:10 145.825 FM, Beacon 2401.500 USB
FUNcube-1 27 Aug 22:31:17 22:34:37 24° 72° (ENE) 22:37:59 145.950 - 145.970 MHz USB
Saudisat 1A 27 Aug 23:19:05 23:23:11 39° 113° (ESE) 23:27:17 436.775 MHz
Oscar 11 27 Aug 23:53:35 23:54:21 10° 267° (W) 23:55:08 145.825 FM, Beacon 2401.500 USB
KITSAT 1 27 Aug 23:57:56 00:05:35 48° 109° (ESE) 00:13:15 435.175 FM
FUNcube-1 28 Aug 00:08:00 00:10:55 19° 264° (W) 00:13:52 145.950 - 145.970 MHz USB
MaSat-1 28 Aug 00:42:41 00:47:07 79° 68° (ENE) 00:50:52 437.345 MHz
Saudisat 1A 28 Aug 01:00:09 01:02:53 16° 307° (NW) 01:05:37 436.775 MHz
KITSAT 1 28 Aug 01:54:07 02:01:06 31° 305° (NW) 02:08:07 435.175 FM
Oscar 19 28 Aug 02:02:31 02:06:11 19° 96° (E) 02:09:50 437.125 CW, 437.150 USB
ITAMSAT 1 28 Aug 02:28:36 02:31:10 14° 94° (E) 02:33:43 435.822 SSB
Oscar 16 28 Aug 02:35:42 02:40:42 47° 100° (E) 02:45:40 437.025 USB, Beacon 2401.1428
Uribyol 2 28 Aug 02:38:23 02:42:05 20° 96° (E) 02:45:47 436.500 FM
AO-Echo 28 Aug 02:54:19 02:58:22 29° 98° (E) 03:02:25 ?
AO-27 28 Aug 02:55:08 02:59:34 28° 98° (E) 03:04:00 436.795 MHz FM
Sapphire 28 Aug 03:00:04 03:03:44 18° 55° (NE) 03:07:23 437.095 MHz 1200 baud AX-25 AFSK
Gurwin Techsat 1B 28 Aug 03:06:44 03:09:38 15° 94° (E) 03:12:32 435.225 FM
PCSat 28 Aug 03:28:54 03:33:52 36° 61° (ENE) 03:38:48 145.825 MHz
Oscar 19 28 Aug 03:40:48 03:45:33 37° 288° (WNW) 03:50:16 437.125 CW, 437.150 USB
JAS-1B 28 Aug 03:50:43 03:57:22 81° 103° (ESE) 04:03:10 435.800 - 435.900 CW/SSB
OPAL 28 Aug 03:54:48 03:56:57 13° 64° (ENE) 03:59:06 ?
TMSAT-1 28 Aug 03:58:36 04:03:31 38° 99° (E) 04:08:24 436.925 FM
ITAMSAT 1 28 Aug 04:05:50 04:10:50 51° 286° (WNW) 04:15:50 435.822 SSB
Oscar 16 28 Aug 04:16:32 04:19:36 16° 293° (WNW) 04:22:41 437.025 USB, Beacon 2401.1428
Uribyol 2 28 Aug 04:16:51 04:21:34 36° 288° (WNW) 04:26:18 436.500 FM
SO-50 28 Aug 04:27:13 04:31:29 48° 114° (ESE) 04:35:49 436.795 FM
AO-Echo 28 Aug 04:33:30 04:36:55 21° 290° (WNW) 04:40:22 ?
AO-27 28 Aug 04:34:43 04:38:54 26° 290° (WNW) 04:43:06 436.795 MHz FM
Sapphire 28 Aug 04:42:10 04:47:22 49° 250° (WSW) 04:52:33 437.095 MHz 1200 baud AX-25 AFSK
Gurwin Techsat 1B 28 Aug 04:44:40 04:49:46 49° 286° (WNW) 04:54:51 435.225 FM
AO-7 28 Aug 04:58:00 05:05:18 34° 100° (E) 05:12:33 29.400 - 29.500 MHz
PCSat 28 Aug 05:12:52 05:16:59 22° 254° (WSW) 05:21:06 145.825 MHz
Uosat F 28 Aug 05:20:10 05:24:55 43° 100° (E) 05:29:39 435.120 FM
OPAL 28 Aug 05:30:20 05:35:15 58° 257° (WSW) 05:40:16 ?
TMSAT-1 28 Aug 05:39:21 05:43:06 20° 292° (WNW) 05:46:51 436.925 FM
JAS-1B 28 Aug 05:45:15 05:46:47 11° 302° (WNW) 05:48:17 435.800 - 435.900 CW/SSB
SO-50 28 Aug 06:09:58 06:12:17 14° 309° (NW) 06:14:38 436.795 FM
UOSAT-12 28 Aug 06:43:11 06:47:45 82° 297° (WNW) 06:52:26 437.025 FM, 437.400 FM
Hamsat 28 Aug 06:49:10 06:53:06 33° 98° (E) 06:56:58 145.90 MHz
AO-7 28 Aug 06:50:23 06:58:01 43° 293° (WNW) 07:05:38 29.400 - 29.500 MHz
Uosat F 28 Aug 07:00:18 07:03:18 16° 293° (WNW) 07:06:17 435.120 FM
STRAND 1 28 Aug 07:09:26 07:14:15 44° 73° (ENE) 07:19:05 ?
JAS-2 28 Aug 07:36:18 07:41:35 85° 283° (WNW) 07:47:20 435.800 - 435.900 CW/SSB, 435.910 FM
RS-15 28 Aug 08:07:50 08:18:39 56° 110° (ESE) 08:29:09 29.354 - 29.394 USB, Beacon 29.352 USB
SO-67 28 Aug 08:08:20 08:11:31 34° 98° (E) 08:14:42 435.3500 MHz FM
Hamsat 28 Aug 08:26:10 08:28:43 15° 290° (WNW) 08:31:15 145.90 MHz
STRAND 1 28 Aug 08:50:38 08:53:34 15° 265° (W) 08:56:30 ?
Saudisat 1A 28 Aug 09:30:29 09:34:54 78° 63° (ENE) 09:39:17 436.775 MHz
HO-68 28 Aug 09:43:29 09:49:47 33° 99° (E) 09:56:04 435.675 MHz FM
KITSAT 1 28 Aug 09:52:46 10:00:31 48° 60° (ENE) 10:08:11 435.175 FM
UKube-1 28 Aug 09:59:28 10:02:23 18° 96° (E) 10:05:17 145.840 MHz, 145.915 MHz
Oscar 11 28 Aug 10:09:09 10:11:24 14° 94° (E) 10:13:38 145.825 FM, Beacon 2401.500 USB
RS-15 28 Aug 10:21:25 10:31:14 35° 308° (NW) 10:40:58 29.354 - 29.394 USB, Beacon 29.352 USB
ISS 28 Aug 10:35:04 10:37:28 19° 127° (SE) 10:39:52 145.800 FM
HO-68 28 Aug 11:30:58 11:37:22 37° 292° (WNW) 11:43:46 435.675 MHz FM
UKube-1 28 Aug 11:34:49 11:38:32 28° 288° (WNW) 11:42:15 145.840 MHz, 145.915 MHz
Oscar 11 28 Aug 11:43:38 11:47:38 36° 286° (WNW) 11:51:36 145.825 FM, Beacon 2401.500 USB
KITSAT 1 28 Aug 11:48:48 11:55:30 30° 254° (WSW) 12:02:11 435.175 FM
AO-40 28 Aug 11:49:49 03:12:54 52° 182° (S) 12:26:28 Beacon 2401.320
PANSAT 28 Aug 11:55:22 11:57:33 15° 155° (SSE) 11:59:45 not established
FUNcube-1 28 Aug 12:01:20 12:05:50 65° 284° (WNW) 12:10:23 145.950 - 145.970 MHz USB
ISS 28 Aug 12:11:11 12:14:02 26° 319° (NW) 12:16:54 145.800 FM
SO-50 28 Aug 13:07:00 13:08:17 11° 50° (NE) 13:09:33 436.795 FM
Oscar 19 28 Aug 13:14:26 13:17:26 16° 67° (ENE) 13:20:27 437.125 CW, 437.150 USB
PANSAT 28 Aug 13:33:40 13:37:20 43° 165° (SSE) 13:41:01 not established
ITAMSAT 1 28 Aug 13:42:02 13:43:55 12° 65° (ENE) 13:45:48 435.822 SSB
Oscar 16 28 Aug 13:46:55 13:51:35 37° 72° (ENE) 13:56:18 437.025 USB, Beacon 2401.1428
Uribyol 2 28 Aug 13:51:15 13:54:26 17° 67° (ENE) 13:57:37 436.500 FM
AO-Echo 28 Aug 14:01:45 14:05:38 22° 70° (ENE) 14:09:25 ?
AO-27 28 Aug 14:07:52 14:11:58 24° 70° (ENE) 14:16:03 436.795 MHz FM
